JBU2220 EGLL-KJFK

Flight info

Callsign JBU2220
Flight time N/A
Altitude 24000
Route CPT L9 ELWIS/N0452F320 L9 BUCGO/N0414F240 L9 ARPAK/N0452F320 DCT FELCA DCT FADZU DCT OFSOX DCT BANBA DCT DOLIP DCT LIMRI/M079F340 DCT 5230N02000W 5230N03000W 52N040W 4930N05000W DCT IBERG/N0450F360 N364A TUSKY DCT PLYMM PARCH4
Aircraft A321/M-SDE3FGHIRWY/LB1

Departure

Time 2026-05-06 05:02
Airport London Heathrow Airport (EGLL)

Arrival

Time N/A
Airport John F. Kennedy International Airport (KJFK)
Time Latitude Longitude Altitude Speed Heading
2026-05-06 04:41 51.47248 -0.44178 87 ft 0 kts 270°
2026-05-06 04:52 51.47248 -0.44176 88 ft 2 kts 270°
2026-05-06 04:53 51.47248 -0.44135 86 ft 4 kts 270°
2026-05-06 04:53 51.47248 -0.44100 88 ft 4 kts 268°
2026-05-06 04:53 51.47254 -0.44066 88 ft 4 kts 210°
2026-05-06 04:53 51.47277 -0.44058 87 ft 4 kts 180°
2026-05-06 04:54 51.47294 -0.44058 86 ft 0 kts 180°
2026-05-06 04:56 51.47286 -0.44058 86 ft 4 kts 180°
2026-05-06 04:57 51.47232 -0.44058 86 ft 12 kts 180°
2026-05-06 04:57 51.47139 -0.44057 86 ft 14 kts 180°
2026-05-06 04:57 51.47042 -0.44056 88 ft 14 kts 179°
2026-05-06 04:57 51.46945 -0.44055 87 ft 14 kts 179°
2026-05-06 04:58 51.46847 -0.44054 90 ft 14 kts 180°
2026-05-06 04:58 51.46746 -0.44054 89 ft 14 kts 180°
2026-05-06 04:58 51.46669 -0.43984 90 ft 14 kts 104°
2026-05-06 04:58 51.46667 -0.43830 88 ft 14 kts 89°
2026-05-06 04:59 51.46668 -0.43755 86 ft 0 kts 89°
2026-05-06 04:59 51.46668 -0.43751 86 ft 1 kts 90°
2026-05-06 05:00 51.46668 -0.43750 86 ft 0 kts 90°
2026-05-06 05:00 51.46668 -0.43711 87 ft 6 kts 90°
2026-05-06 05:00 51.46658 -0.43646 86 ft 7 kts 118°
2026-05-06 05:00 51.46596 -0.43600 86 ft 11 kts 177°
2026-05-06 05:01 51.46519 -0.43605 87 ft 11 kts 197°
2026-05-06 05:01 51.46494 -0.43714 89 ft 11 kts 269°
2026-05-06 05:01 51.46494 -0.43876 86 ft 30 kts 270°
2026-05-06 05:01 51.46492 -0.44612 88 ft 101 kts 270°
2026-05-06 05:02 51.46487 -0.46074 89 ft 159 kts 269°
2026-05-06 05:02 51.46473 -0.48078 305 ft 191 kts 271°
2026-05-06 05:02 51.46470 -0.50216 1050 ft 192 kts 273°
2026-05-06 05:02 51.46468 -0.52407 1364 ft 205 kts 272°
2026-05-06 05:03 51.46442 -0.54812 1485 ft 228 kts 272°
2026-05-06 05:03 51.46406 -0.57493 1657 ft 252 kts 272°
2026-05-06 05:03 51.46363 -0.60375 2149 ft 262 kts 271°
2026-05-06 05:03 51.46145 -0.63302 2795 ft 269 kts 258°
2026-05-06 05:04 51.45685 -0.66217 3520 ft 269 kts 259°
2026-05-06 05:04 51.45458 -0.69164 4253 ft 266 kts 272°
2026-05-06 05:04 51.45432 -0.72117 5014 ft 264 kts 272°
2026-05-06 05:04 51.45406 -0.75061 5753 ft 264 kts 272°
2026-05-06 05:05 51.45378 -0.77997 6491 ft 263 kts 272°
2026-05-06 05:05 51.45364 -0.79404 6810 ft 264 kts 271°
2026-05-06 05:05 51.45334 -0.82360 7406 ft 267 kts 271°
2026-05-06 05:05 51.45305 -0.85368 7989 ft 271 kts 271°
2026-05-06 05:06 51.45349 -0.88441 8570 ft 273 kts 280°
2026-05-06 05:06 51.45688 -0.91455 9160 ft 276 kts 282°
2026-05-06 05:06 51.46036 -0.94464 9735 ft 280 kts 282°
2026-05-06 05:06 51.46395 -0.97613 10208 ft 288 kts 282°
2026-05-06 05:07 51.46767 -1.00882 10324 ft 307 kts 282°
2026-05-06 05:07 51.47158 -1.04303 10451 ft 325 kts 281°
2026-05-06 05:07 51.47583 -1.08022 10579 ft 343 kts 282°
2026-05-06 05:07 51.48016 -1.11813 10770 ft 357 kts 281°
2026-05-06 05:08 51.48466 -1.15752 11237 ft 361 kts 282°